THOR AGENA B DEB, 2153

Orbit data source: Space-Track

THOR AGENA B DEB, 2153 is space debris in LEO originally from a launch on Mon, 29 Nov 1965 UTC launched from the Air Force Western Test Range (AFWTR). Debris objects in space refer to the collection of defunct objects orbiting the Earth. Examples of debris include non-operational satellites, rocket bodies, and fragments generated from explosions, collisions, or faulty payload assembly.

Loading next visibility...
Identifier
2153, 1965-098J
Orbit
LEO
Country
Flag of USUS
Related business
Manufacturer
Unknown
Mission
Spacecraft
Bus & Motor
Unknown
Mass
~1 kg wet, ~1 kg dry
Launch date (UTC)
1965-11-29 (60 years ago)
Launch vehicle
Unknown
Launch site
Air Force Western Test Range (AFWTR)
Object type
Payload
Rocket body
Debris
Shape & HBR
Unknown
Radar Cross Section
Small (<0.1 m²)

Expand to show TLE details & history
Last TLE update: 11 hours ago

TLE from 11 hours ago
0 THOR AGENA B DEB
1 02153U 65098J   25293.47395035  .00001129  00000-0  35619-3 0  9996
2 02153  79.7381 281.9228 1282380 181.3869 314.1534 12.38732212657347
Epoch: 2025-10-20T11:22Z
TLE epoch observation values (Epoch: 2025-10-20T11:22:29.310Z)
Latitude
54.99227°
Longitude
-112.77348°
Altitude
892.451 km
Speed
7.701 km/s
True Right ascension
05h 48m 05s
True Declination
54° 50' 01"
Sunlit
Object was in daylight at epoch
Visualization orbit readout
Latitude
Unknown
Longitude
Unknown
Altitude
Unknown
Speed
Unknown
Apparent Right ascension
Unknown
Apparent Declination
Unknown
Sunlit
N/A
Visualization observer readout
Local Sidereal Time
16:52:08
Azimuth
Unknown
Elevation
Unknown
Doppler factor
Unknown
Orbital elements
Apogee altitude
2,520.88 km
Perigee altitude
497.917 km
Semi-major axis
7,887.536 km
Eccentricity
0.12824
Inclination
79.7381°
RAAN
281.9228°
Arg. of periapsis
181.3869°
True anomaly
302.37701°
Mean anomaly
314.1534°
Eccentric anomaly
308.3948°
Mean motion
3.09835 °/min
Orbital period
116.19 mins
BSTAR
0.00035619
Loading maneuver chart data...
Computing Atmospheric mass density...
Loading historical data...
Loading historical data...
Loading historical data...
Loading historical data...
Loading historical data...
Loading historical data...
Loading historical data...

Documentation

Showing up to 5 results
|